When you browse on this site, cookies collect data to enhance your experience and personalize the content and advertising you see.
Visit our Privacy Policy to learn more. By continuing to use the site, you agree to this use of cookies and data.
  • In United Kingdom
  • List of Countries
  • For 7 days
  • Water Temperature
  • Satellite Maps
  • Weather Map
  • Weather Widgets
  • user-avatar
    Login

    Hourly Weather Nzérékoré

    Today, 19 November, Monday

    Time Temperature Precipitation Wind Pressure Humidity
    00:00 +27°C° 0 mm 0 mps 744 mmHg 46%
    01:00 +26°C° 0 mm 0 mps 744 mmHg 47%
    02:00 +26°C° 0 mm 0 mps 744 mmHg 49%
    03:00 +25°C° 0 mm 0 mps 744 mmHg 51%
    04:00 +25°C° 0 mm 0 mps 743 mmHg 52%
    05:00 +25°C° 0 mm 0 mps 744 mmHg 55%
    06:00 +25°C° 0 mm 0 mps 744 mmHg 57%
    07:00 +25°C° 0 mm 0 mps 744 mmHg 59%
    08:00 +27°C° 0 mm 0 mps 745 mmHg 53%
    09:00 +30°C° 0 mm 0 mps 745 mmHg 47%
    10:00 +34°C° 0 mm 1 mps 745 mmHg 41%
    11:00 +35°C° 0 mm 1 mps 744 mmHg 35%
    12:00 +36°C° 0 mm 1 mps 744 mmHg 30%
    13:00 +39°C° 0 mm 2 mps 743 mmHg 25%
    14:00 +38°C° 0 mm 2 mps 742 mmHg 24%
    15:00 +38°C° 0 mm 2 mps 742 mmHg 24%
    16:00 +38°C° 0 mm 2 mps 741 mmHg 23%
    17:00 +37°C° 0 mm 2 mps 741 mmHg 27%
    18:00 +34°C° 0 mm 1 mps 742 mmHg 30%
    19:00 +32°C° 0 mm 1 mps 742 mmHg 33%
    20:00 +32°C° 0 mm 1 mps 742 mmHg 34%
    21:00 +31°C° 0 mm 1 mps 743 mmHg 35%
    22:00 +31°C° 0 mm 1 mps 743 mmHg 36%
    23:00 +30°C° 0 mm 1 mps 743 mmHg 38%

    Tomorrow, 20 November, Tuesday

    Time Temperature Precipitation Wind Pressure Humidity
    00:00 +30°C° 0 mm 1 mps 743 mmHg 41%
    01:00 +29°C° 0 mm 1 mps 743 mmHg 43%
    02:00 +29°C° 0 mm 1 mps 743 mmHg 48%
    03:00 +28°C° 0 mm 1 mps 743 mmHg 54%
    04:00 +27°C° 0 mm 1 mps 743 mmHg 59%
    05:00 +27°C° 0 mm 1 mps 743 mmHg 64%
    06:00 +27°C° 0 mm 1 mps 744 mmHg 70%
    07:00 +27°C° 0 mm 1 mps 744 mmHg 75%
    08:00 +29°C° 0 mm 1 mps 745 mmHg 71%
    09:00 +30°C° 0 mm 1 mps 745 mmHg 66%
    10:00 +32°C° 0 mm 2 mps 746 mmHg 61%
    11:00 +34°C° 0 mm 1 mps 745 mmHg 52%
    12:00 +36°C° 0 mm 1 mps 744 mmHg 44%
    13:00 +39°C° 0 mm 1 mps 744 mmHg 35%
    14:00 +39°C° 0 mm 1 mps 743 mmHg 33%
    15:00 +39°C° 0 mm 1 mps 742 mmHg 30%
    16:00 +39°C° 0 mm 2 mps 741 mmHg 28%
    17:00 +36°C° 0 mm 1 mps 742 mmHg 31%
    18:00 +34°C° 0 mm 1 mps 742 mmHg 34%
    19:00 +30°C° 0 mm 0 mps 742 mmHg 37%
    20:00 +30°C° 0 mm 0 mps 743 mmHg 38%
    21:00 +31°C° 0 mm 1 mps 743 mmHg 39%
    22:00 +31°C° 0 mm 1 mps 744 mmHg 40%
    23:00 +30°C° 0 mm 1 mps 744 mmHg 43%

    Day after tomorrow, 21 November, Wednesday

    Time Temperature Precipitation Wind Pressure Humidity
    00:00 +30°C° 0 mm 2 mps 744 mmHg 46%
    01:00 +29°C° 0 mm 2 mps 744 mmHg 50%
    02:00 +28°C° 0 mm 2 mps 743 mmHg 57%
    03:00 +28°C° 0 mm 2 mps 743 mmHg 65%
    04:00 +27°C° 0 mm 2 mps 743 mmHg 73%
    05:00 +27°C° 0 mm 2 mps 744 mmHg 75%
    06:00 +27°C° 0 mm 2 mps 744 mmHg 78%
    07:00 +27°C° 0 mm 1 mps 745 mmHg 81%
    08:00 +28°C° 0 mm 2 mps 745 mmHg 76%
    09:00 +30°C° 0 mm 2 mps 746 mmHg 72%
    10:00 +31°C° 0 mm 3 mps 746 mmHg 67%
    11:00 +34°C° 0 mm 2 mps 745 mmHg 60%
    12:00 +35°C° 0 mm 2 mps 744 mmHg 52%
    13:00 +37°C° 0 mm 2 mps 744 mmHg 45%
    14:00 +36°C° 0 mm 1 mps 743 mmHg 43%
    15:00 +36°C° 0 mm 1 mps 742 mmHg 41%
    16:00 +36°C° 0 mm 1 mps 741 mmHg 39%
    17:00 +35°C° 0 mm 1 mps 742 mmHg 43%
    18:00 +33°C° 0 mm 1 mps 742 mmHg 47%
    19:00 +32°C° 0 mm 1 mps 742 mmHg 50%
    20:00 +31°C° 0 mm 1 mps 743 mmHg 52%
    21:00 +31°C° 0 mm 1 mps 743 mmHg 55%
    22:00 +30°C° 0 mm 2 mps 744 mmHg 57%
    23:00 +30°C° 0 mm 2 mps 744 mmHg 59%

    22 November, Thursday

    Time Temperature Precipitation Wind Pressure Humidity
    00:00 +29°C° 0 mm 2 mps 744 mmHg 62%
    01:00 +29°C° 0 mm 2 mps 743 mmHg 65%
    02:00 +28°C° 0 mm 2 mps 743 mmHg 69%
    03:00 +28°C° 0 mm 2 mps 743 mmHg 74%
    04:00 +27°C° 0 mm 2 mps 743 mmHg 78%
    05:00 +27°C° 0.1 mm 2 mps 744 mmHg 81%
    06:00 +27°C° 0.1 mm 1 mps 744 mmHg 83%
    07:00 +27°C° 0.1 mm 1 mps 745 mmHg 85%
    08:00 +29°C° 0.1 mm 1 mps 745 mmHg 77%
    09:00 +30°C° 0.1 mm 2 mps 745 mmHg 69%
    10:00 +32°C° 0.1 mm 2 mps 746 mmHg 62%
    11:00 +35°C° 0 mm 2 mps 745 mmHg 54%
    12:00 +36°C° 0 mm 1 mps 744 mmHg 46%
    13:00 +39°C° 0 mm 1 mps 743 mmHg 39%
    14:00 +39°C° 0 mm 1 mps 742 mmHg 37%
    15:00 +39°C° 0 mm 1 mps 742 mmHg 35%
    16:00 +36°C° 0 mm 0 mps 741 mmHg 33%
    17:00 +34°C° 0 mm 0 mps 741 mmHg 36%
    18:00 +35°C° 0 mm 1 mps 742 mmHg 40%
    19:00 +33°C° 0 mm 1 mps 742 mmHg 43%
    20:00 +32°C° 0 mm 1 mps 743 mmHg 45%
    21:00 +32°C° 0 mm 1 mps 743 mmHg 48%
    22:00 +31°C° 0 mm 2 mps 744 mmHg 50%
    23:00 +30°C° 0 mm 2 mps 744 mmHg 54%

    23 November, Friday

    Time Temperature Precipitation Wind Pressure Humidity
    00:00 +30°C° 0 mm 2 mps 743 mmHg 59%
    01:00 +29°C° 0 mm 3 mps 743 mmHg 64%
    02:00 +29°C° 0 mm 3 mps 743 mmHg 68%
    03:00 +28°C° 0 mm 3 mps 743 mmHg 73%
    04:00 +27°C° 0 mm 2 mps 743 mmHg 77%
    05:00 +27°C° 0 mm 2 mps 744 mmHg 79%
    06:00 +27°C° 0 mm 2 mps 744 mmHg 81%
    07:00 +27°C° 0 mm 1 mps 745 mmHg 82%
    08:00 +29°C° 0 mm 2 mps 745 mmHg 75%
    09:00 +31°C° 0 mm 2 mps 745 mmHg 67%
    10:00 +32°C° 0 mm 2 mps 746 mmHg 60%
    11:00 +33°C° 0 mm 1 mps 745 mmHg 56%
    12:00 +35°C° 0 mm 1 mps 744 mmHg 52%
    13:00 +36°C° 0 mm 1 mps 743 mmHg 48%
    14:00 +35°C° 0 mm 1 mps 742 mmHg 47%
    15:00 +35°C° 0 mm 1 mps 742 mmHg 46%
    16:00 +35°C° 0 mm 1 mps 741 mmHg 45%
    17:00 +34°C° 0 mm 1 mps 742 mmHg 49%
    18:00 +33°C° 0 mm 1 mps 742 mmHg 53%
    19:00 +31°C° 0 mm 2 mps 742 mmHg 57%
    20:00 +31°C° 0 mm 2 mps 743 mmHg 59%
    21:00 +30°C° 0 mm 1 mps 743 mmHg 61%
    22:00 +30°C° 0 mm 1 mps 743 mmHg 63%
    23:00 +29°C° 0 mm 1 mps 743 mmHg 65%

    24 November, Saturday

    Time Temperature Precipitation Wind Pressure Humidity
    00:00 +29°C° 0 mm 1 mps 743 mmHg 67%
    01:00 +28°C° 0 mm 1 mps 743 mmHg 69%
    02:00 +28°C° 0 mm 1 mps 743 mmHg 71%
    03:00 +27°C° 0 mm 1 mps 743 mmHg 73%
    04:00 +27°C° 0 mm 1 mps 742 mmHg 75%
    05:00 +27°C° 0 mm 1 mps 743 mmHg 76%
    06:00 +27°C° 0 mm 1 mps 744 mmHg 77%
    07:00 +25°C° 0 mm 0 mps 744 mmHg 78%
    08:00 +29°C° 0 mm 1 mps 744 mmHg 70%
    09:00 +31°C° 0 mm 1 mps 745 mmHg 63%
    10:00 +33°C° 0 mm 1 mps 745 mmHg 55%
    11:00 +35°C° 0 mm 1 mps 744 mmHg 47%
    12:00 +37°C° 0 mm 1 mps 743 mmHg 39%
    13:00 +40°C° 0 mm 1 mps 742 mmHg 32%
    14:00 +40°C° 0 mm 1 mps 742 mmHg 30%
    15:00 +40°C° 0 mm 1 mps 741 mmHg 28%
    16:00 +40°C° 0 mm 1 mps 741 mmHg 26%
    17:00 +37°C° 0 mm 1 mps 741 mmHg 28%
    18:00 +35°C° 0 mm 1 mps 741 mmHg 31%
    19:00 +31°C° 0 mm 0 mps 742 mmHg 34%
    20:00 +30°C° 0 mm 0 mps 742 mmHg 35%
    21:00 +30°C° 0 mm 0 mps 743 mmHg 36%
    22:00 +29°C° 0 mm 0 mps 743 mmHg 37%
    23:00 +30°C° 0 mm 1 mps 743 mmHg 40%
    Show more